Location: Unspecified
(0.0000°N, 0.0000°E)
Time: 17:41:22
(UTC+00:00)

Vanguard 2 - Pass Details

Date: 16 December 2017
Orbit: 553 x 2939 km, 32.9° (Epoch: 19 July)

Event Time Altitude Azimuth Distance (km) Brightness Sun altitude
Rises 09:00:47 0° 226° (SW) 6,676 12.2 41.6°
Reaches altitude 10° 09:05:21 10° 222° (SW) 5,747 12.0 42.5°
Maximum altitude 09:22:50 56° 148° (SSE) 3,089 12.5 46.2°
Drops below altitude 10° 09:36:21 10° 73° (ENE) 4,593 12.0 48.9°
Sets 09:39:30 0° 69° (ENE) 5,314 12.1 49.5°
